^^
Station Historical Data
Daily Summary for May 1, 2017 Units:  English    Metric   Both
« Previous Day
Next Day »
Daily Weekly Monthly Yearly Custom
  High: Low: Average:
Temperature: 79.7 °F 49.9 °F 62.8 °F
Dew Point: 66.4 °F 46.4 °F 56.5 °F
Humidity: 96 % 61 % 81 %
Wind Speed: 14.2 mph 0.0 mph 2.3 mph
Wind Gust: 27.6 mph - -
Wind:- - SSE
Pressure: 30.11 in 29.59 in -
Precipitation: 0.02 in    
Historical Graphs
 
 
Tabular Data for May 1, 2017
Time Temperature Dew Point Pressure Wind Wind Speed Wind Gust Humidity Rainfall Rate (Hourly) solar Conditions
00:03 51.5 °F 46.5 °F 30.11 in Calm     83 % 0.00 in 0.0 W/m2 CLR
00:08 51.4 °F 46.7 °F 30.11 in Calm   1.2 mph 84 % 0.00 in 0.0 W/m2 CLR
00:13 51.3 °F 46.6 °F 30.10 in NE 0.6 mph 1.2 mph 84 % 0.00 in 0.0 W/m2 CLR
00:18 51.1 °F 46.4 °F 30.11 in ENE 0.2 mph 2.3 mph 84 % 0.00 in 0.0 W/m2 CLR
00:23 51.0 °F 46.6 °F 30.11 in NE 0.6 mph 3.5 mph 85 % 0.00 in 0.0 W/m2 CLR
00:28 51.0 °F 46.6 °F 30.11 in Calm     85 % 0.00 in 0.0 W/m2 CLR
00:33 51.0 °F 47.0 °F 30.11 in Calm     86 % 0.00 in 0.0 W/m2 CLR
00:38 50.9 °F 46.9 °F 30.11 in Calm     86 % 0.00 in 0.0 W/m2 CLR
00:43 51.0 °F 47.0 °F 30.10 in Calm     86 % 0.00 in 0.0 W/m2 CLR
00:48 50.8 °F 46.8 °F 30.10 in Calm     86 % 0.00 in 0.0 W/m2 CLR
00:53 50.8 °F 46.8 °F 30.10 in NE 0.1 mph 1.2 mph 86 % 0.00 in 0.0 W/m2 CLR
00:58 50.8 °F 46.8 °F 30.10 in ENE 0.7 mph 3.5 mph 86 % 0.00 in 0.0 W/m2 CLR
01:03 50.7 °F 47.0 °F 30.10 in Calm   1.2 mph 87 % 0.00 in 0.0 W/m2 CLR
01:08 50.7 °F 47.0 °F 30.10 in Calm     87 % 0.00 in 0.0 W/m2 CLR
01:13 50.7 °F 47.0 °F 30.09 in NNE 1.3 mph 4.6 mph 87 % 0.00 in 0.0 W/m2 CLR
01:18 50.7 °F 47.0 °F 30.10 in Calm     87 % 0.00 in 0.0 W/m2 CLR
01:23 50.6 °F 46.9 °F 30.09 in Calm     87 % 0.00 in 0.0 W/m2 CLR
01:28 50.6 °F 47.2 °F 30.09 in Calm   1.2 mph 88 % 0.00 in 0.0 W/m2 CLR
01:33 50.5 °F 47.1 °F 30.09 in Calm     88 % 0.00 in 0.0 W/m2 CLR
01:38 50.4 °F 47.0 °F 30.09 in Calm     88 % 0.00 in 0.0 W/m2 CLR
01:43 50.3 °F 46.9 °F 30.08 in ESE 0.3 mph 2.3 mph 88 % 0.00 in 0.0 W/m2 CLR
01:48 50.3 °F 46.9 °F 30.08 in Calm   1.2 mph 88 % 0.00 in 0.0 W/m2 CLR
01:53 50.2 °F 47.1 °F 30.08 in Calm     89 % 0.00 in 0.0 W/m2 CLR
01:58 50.2 °F 47.1 °F 30.08 in Calm     89 % 0.00 in 0.0 W/m2 CLR
02:03 50.1 °F 47.0 °F 30.08 in Calm     89 % 0.00 in 0.0 W/m2 CLR
02:08 50.2 °F 47.1 °F 30.07 in Calm   1.2 mph 89 % 0.00 in 0.0 W/m2 CLR
02:13 50.1 °F 47.0 °F 30.07 in Calm     89 % 0.00 in 0.0 W/m2 CLR
02:18 50.1 °F 47.0 °F 30.06 in Calm     89 % 0.00 in 0.0 W/m2 CLR
02:23 50.1 °F 47.0 °F 30.06 in NNE 1.2 mph 4.0 mph 89 % 0.00 in 0.0 W/m2 CLR
02:28 50.1 °F 47.0 °F 30.06 in Calm     89 % 0.00 in 0.0 W/m2 CLR
02:33 50.2 °F 47.1 °F 30.06 in Calm   2.3 mph 89 % 0.00 in 0.0 W/m2 CLR
02:38 50.2 °F 47.1 °F 30.05 in Calm   3.5 mph 89 % 0.00 in 0.0 W/m2 CLR
02:43 50.1 °F 47.0 °F 30.05 in Calm     89 % 0.00 in 0.0 W/m2 CLR
02:48 50.1 °F 47.3 °F 30.05 in Calm     90 % 0.00 in 0.0 W/m2 CLR
02:53 49.9 °F 47.1 °F 30.05 in Calm     90 % 0.00 in 0.0 W/m2 CLR
02:58 49.9 °F 47.1 °F 30.05 in Calm     90 % 0.00 in 0.0 W/m2 CLR
03:03 50.0 °F 47.2 °F 30.04 in Calm     90 % 0.00 in 0.0 W/m2 CLR
03:08 50.0 °F 47.5 °F 30.04 in Calm   3.5 mph 91 % 0.00 in 0.0 W/m2 CLR
03:13 50.1 °F 47.6 °F 30.04 in Calm     91 % 0.00 in 0.0 W/m2 CLR
03:18 50.1 °F 47.6 °F 30.03 in Calm     91 % 0.00 in 0.0 W/m2 CLR
03:23 50.0 °F 47.5 °F 30.03 in Calm     91 % 0.00 in 0.0 W/m2 CLR
03:29 50.1 °F 47.6 °F 30.03 in Calm     91 % 0.00 in 0.0 W/m2 CLR
03:34 50.2 °F 47.7 °F 30.03 in Calm     91 % 0.00 in 0.0 W/m2 CLR
03:39 50.1 °F 47.6 °F 30.03 in Calm     91 % 0.00 in 0.0 W/m2 CLR
03:44 50.0 °F 47.5 °F 30.03 in NE 0.4 mph 2.3 mph 91 % 0.00 in 0.0 W/m2 CLR
03:49 49.9 °F 47.7 °F 30.03 in Calm     92 % 0.00 in 0.0 W/m2 CLR
03:54 50.0 °F 47.8 °F 30.03 in Calm     92 % 0.00 in 0.0 W/m2 CLR
03:59 49.9 °F 47.7 °F 30.03 in Calm   1.0 mph 92 % 0.00 in 0.0 W/m2 CLR
04:04 49.9 °F 47.7 °F 30.03 in Calm     92 % 0.00 in 0.0 W/m2 CLR
04:09 49.9 °F 47.7 °F 30.03 in Calm     92 % 0.00 in 0.0 W/m2 CLR
04:14 49.9 °F 47.7 °F 30.02 in Calm     92 % 0.00 in 0.0 W/m2 CLR
04:19 49.9 °F 47.7 °F 30.02 in Calm     92 % 0.00 in 0.0 W/m2 CLR
04:24 49.9 °F 47.7 °F 30.02 in NE 0.1 mph 1.2 mph 92 % 0.00 in 0.0 W/m2 CLR
04:29 50.0 °F 48.1 °F 30.02 in Calm     93 % 0.00 in 0.0 W/m2 CLR
04:34 50.1 °F 48.2 °F 30.02 in Calm     93 % 0.00 in 0.0 W/m2 CLR
04:39 50.0 °F 48.1 °F 30.02 in NE 0.1 mph 1.0 mph 93 % 0.00 in 0.0 W/m2 CLR
04:44 50.1 °F 48.2 °F 30.01 in NNE 0.6 mph 3.5 mph 93 % 0.00 in 0.0 W/m2 CLR
04:49 50.0 °F 48.1 °F 30.01 in NNE 0.2 mph 2.3 mph 93 % 0.00 in 0.0 W/m2 CLR
04:54 50.0 °F 48.1 °F 30.01 in Calm     93 % 0.00 in 0.0 W/m2 CLR
04:59 50.1 °F 48.2 °F 30.01 in Calm     93 % 0.00 in 0.0 W/m2 CLR
05:04 50.0 °F 48.1 °F 30.01 in NE 0.5 mph 2.3 mph 93 % 0.00 in 0.0 W/m2 CLR
05:09 49.9 °F 48.0 °F 30.01 in Calm   2.3 mph 93 % 0.00 in 0.0 W/m2 CLR
05:14 49.9 °F 48.0 °F 30.01 in Calm     93 % 0.00 in 0.0 W/m2 CLR
05:19 49.9 °F 48.0 °F 30.00 in Calm     93 % 0.00 in 0.0 W/m2 CLR
05:24 49.9 °F 48.0 °F 30.01 in Calm     93 % 0.00 in 0.0 W/m2 CLR
05:29 49.9 °F 48.2 °F 30.01 in Calm     94 % 0.00 in 0.0 W/m2 CLR
05:34 49.9 °F 48.0 °F 30.00 in Calm     93 % 0.00 in 0.0 W/m2 CLR
05:39 49.9 °F 48.2 °F 30.00 in Calm     94 % 0.00 in 0.0 W/m2 CLR
05:44 50.0 °F 48.3 °F 30.00 in Calm     94 % 0.00 in 0.0 W/m2 CLR
05:49 50.1 °F 48.4 °F 30.00 in Calm   2.3 mph 94 % 0.00 in 0.0 W/m2 CLR
05:54 50.0 °F 48.3 °F 30.00 in Calm     94 % 0.00 in 0.0 W/m2 CLR
05:59 49.9 °F 48.2 °F 30.00 in Calm     94 % 0.00 in 0.0 W/m2 CLR
06:04 50.0 °F 48.3 °F 30.00 in Calm     94 % 0.00 in 0.0 W/m2 CLR
06:09 50.0 °F 48.3 °F 29.99 in NE 0.1 mph   94 % 0.00 in 0.0 W/m2 CLR
06:14 50.0 °F 48.3 °F 29.99 in Calm     94 % 0.00 in 0.0 W/m2 CLR
06:19 49.9 °F 48.2 °F 29.99 in Calm     94 % 0.00 in 0.0 W/m2 CLR
06:24 50.0 °F 48.3 °F 29.99 in Calm     94 % 0.00 in 5.0 W/m2 CLR
06:29 50.0 °F 48.3 °F 30.00 in Calm     94 % 0.00 in 7.0 W/m2 CLR
06:34 50.0 °F 48.3 °F 30.00 in Calm     94 % 0.00 in 7.0 W/m2 CLR
06:39 50.1 °F 48.4 °F 29.99 in Calm     94 % 0.00 in 9.0 W/m2 CLR
06:44 50.2 °F 48.5 °F 30.00 in Calm     94 % 0.00 in 11.0 W/m2 CLR
06:49 50.2 °F 48.5 °F 30.00 in Calm     94 % 0.00 in 11.0 W/m2 OVC
06:54 50.1 °F 48.4 °F 30.00 in Calm   1.2 mph 94 % 0.00 in 12.0 W/m2 OVC
06:59 50.1 °F 48.4 °F 30.00 in Calm     94 % 0.00 in 12.0 W/m2 OVC
07:04 50.1 °F 48.4 °F 30.00 in Calm     94 % 0.00 in 16.0 W/m2 OVC
07:10 50.2 °F 48.8 °F 30.00 in Calm     95 % 0.00 in 19.0 W/m2 OVC
07:15 50.2 °F 48.8 °F 30.00 in Calm     95 % 0.00 in 21.0 W/m2 OVC
07:20 50.3 °F 48.9 °F 30.01 in Calm     95 % 0.00 in 23.0 W/m2 OVC
07:25 50.2 °F 48.8 °F 30.00 in Calm     95 % 0.00 in 28.0 W/m2 OVC
07:30 50.4 °F 49.0 °F 30.00 in Calm     95 % 0.00 in 26.0 W/m2 OVC
07:35 50.2 °F 48.8 °F 30.01 in Calm     95 % 0.00 in 28.0 W/m2 OVC
07:40 50.5 °F 49.1 °F 30.00 in Calm     95 % 0.00 in 33.0 W/m2 OVC
07:45 50.4 °F 49.0 °F 30.00 in Calm     95 % 0.00 in 35.0 W/m2 OVC
07:50 50.5 °F 49.1 °F 30.00 in Calm     95 % 0.00 in 30.0 W/m2 OVC
07:55 50.3 °F 48.9 °F 30.00 in Calm     95 % 0.00 in 26.0 W/m2 OVC
08:00 50.4 °F 49.0 °F 29.99 in Calm     95 % 0.00 in 39.0 W/m2 OVC
08:05 50.4 °F 49.0 °F 29.99 in Calm     95 % 0.00 in 37.0 W/m2 OVC
08:10 50.8 °F 49.4 °F 29.99 in Calm     95 % 0.00 in 37.0 W/m2 OVC
08:15 50.7 °F 49.3 °F 29.99 in Calm     95 % 0.00 in 39.0 W/m2 OVC
08:20 50.7 °F 49.3 °F 29.99 in Calm     95 % 0.00 in 49.0 W/m2 OVC
08:25 50.8 °F 49.4 °F 29.99 in Calm     95 % 0.00 in 49.0 W/m2 OVC
08:30 50.8 °F 49.4 °F 29.99 in NE 0.2 mph 2.3 mph 95 % 0.00 in 54.0 W/m2 OVC
08:35 50.6 °F 49.2 °F 29.99 in Calm     95 % 0.00 in 58.0 W/m2 OVC
08:40 50.7 °F 49.3 °F 29.99 in Calm     95 % 0.00 in 56.0 W/m2 OVC
08:45 50.9 °F 49.5 °F 29.99 in Calm     95 % 0.00 in 60.0 W/m2 OVC
08:50 50.9 °F 49.5 °F 29.99 in Calm     95 % 0.00 in 70.0 W/m2 OVC
08:55 50.9 °F 49.5 °F 29.99 in Calm     95 % 0.00 in 74.0 W/m2 OVC
09:00 51.0 °F 49.6 °F 29.99 in Calm   1.2 mph 95 % 0.00 in 81.0 W/m2 OVC
09:05 51.2 °F 49.8 °F 29.99 in Calm   3.5 mph 95 % 0.00 in 83.0 W/m2 OVC
09:10 51.2 °F 49.8 °F 29.99 in Calm     95 % 0.00 in 81.0 W/m2 OVC
09:15 51.2 °F 49.8 °F 29.98 in Calm     95 % 0.00 in 77.0 W/m2 OVC
09:20 51.6 °F 50.2 °F 29.98 in Calm     95 % 0.00 in 88.0 W/m2 OVC
09:25 51.5 °F 50.1 °F 29.98 in Calm     95 % 0.00 in 74.0 W/m2 OVC
09:30 51.6 °F 50.2 °F 29.98 in Calm     95 % 0.00 in 91.0 W/m2 OVC
09:35 51.8 °F 50.4 °F 29.97 in Calm     95 % 0.00 in 88.0 W/m2 OVC
09:40 52.0 °F 50.6 °F 29.97 in Calm     95 % 0.00 in 113.0 W/m2 OVC
09:46 52.1 °F 50.7 °F 29.97 in Calm     95 % 0.00 in 95.0 W/m2 OVC
09:51 52.1 °F 50.7 °F 29.97 in Calm     95 % 0.00 in 84.0 W/m2 OVC
09:56 52.2 °F 50.8 °F 29.97 in Calm     95 % 0.00 in 102.0 W/m2 OVC
10:01 52.4 °F 51.0 °F 29.97 in NNE 1.0 mph 2.3 mph 95 % 0.00 in 113.0 W/m2 OVC
10:06 52.5 °F 51.1 °F 29.97 in NNE 0.1 mph 3.5 mph 95 % 0.00 in 123.0 W/m2 OVC
10:11 52.6 °F 51.2 °F 29.97 in Calm     95 % 0.00 in 125.0 W/m2 OVC
10:16 52.7 °F 51.3 °F 29.97 in Calm     95 % 0.00 in 118.0 W/m2 OVC
10:21 52.9 °F 51.8 °F 29.97 in Calm     96 % 0.00 in 128.0 W/m2 OVC
10:26 52.9 °F 51.5 °F 29.97 in NNE 0.9 mph 2.3 mph 95 % 0.00 in 105.0 W/m2 OVC
10:31 52.9 °F 51.5 °F 29.97 in NNE 0.1 mph 2.3 mph 95 % 0.00 in 142.0 W/m2 OVC
10:36 52.9 °F 51.5 °F 29.97 in Calm     95 % 0.00 in 116.0 W/m2 OVC
10:41 53.0 °F 51.6 °F 29.97 in Calm   1.2 mph 95 % 0.00 in 109.0 W/m2 OVC
10:44 53.0 °F 51.6 °F 29.97 in Calm   2.3 mph 95 % 0.00 in 109.0 W/m2 OVC
10:49 53.2 °F 51.8 °F 29.97 in Calm     95 % 0.00 in 109.0 W/m2 OVC
10:54 53.4 °F 52.0 °F 29.96 in Calm   2.3 mph 95 % 0.00 in 144.0 W/m2 OVC
10:59 53.5 °F 52.1 °F 29.96 in Calm     95 % 0.00 in 186.0 W/m2 BKN
11:04 53.9 °F 52.5 °F 29.95 in Calm     95 % 0.00 in 227.0 W/m2 BKN
11:10 54.3 °F 52.9 °F 29.95 in Calm     95 % 0.00 in 257.0 W/m2 BKN
11:15 54.6 °F 53.2 °F 29.95 in Calm     95 % 0.00 in 264.0 W/m2 BKN
11:20 54.8 °F 53.4 °F 29.94 in Calm     95 % 0.00 in 255.0 W/m2 BKN
11:25 55.3 °F 53.9 °F 29.95 in Calm   1.0 mph 95 % 0.00 in 251.0 W/m2 OVC
11:30 55.5 °F 54.1 °F 29.95 in NNE 0.2 mph   95 % 0.00 in 281.0 W/m2 BKN
11:35 56.0 °F 54.6 °F 29.95 in NNE 0.2 mph 2.3 mph 95 % 0.00 in 338.0 W/m2 BKN
11:40 56.2 °F 54.5 °F 29.94 in Calm   1.0 mph 94 % 0.00 in 316.0 W/m2 BKN
11:45 56.5 °F 54.8 °F 29.94 in NNE 0.1 mph 1.0 mph 94 % 0.00 in 294.0 W/m2 BKN
11:50 57.3 °F 55.6 °F 29.93 in Calm   2.3 mph 94 % 0.00 in 408.0 W/m2 SCT
11:55 57.9 °F 55.9 °F 29.93 in Calm     93 % 0.00 in 485.0 W/m2 SCT
12:00 58.5 °F 56.2 °F 29.93 in Calm     92 % 0.00 in 485.0 W/m2 SCT
12:05 59.1 °F 56.5 °F 29.92 in NE 0.1 mph 2.3 mph 91 % 0.00 in 545.0 W/m2 FEW
12:10 60.6 °F 58.0 °F 29.92 in NNE 0.1 mph 1.2 mph 91 % 0.00 in 485.0 W/m2 SCT
12:15 61.5 °F 58.5 °F 29.92 in North 0.8 mph 5.0 mph 90 % 0.00 in 455.0 W/m2 SCT
12:20 61.2 °F 57.6 °F 29.91 in NNE 1.3 mph 4.0 mph 88 % 0.00 in 652.0 W/m2 SCT
12:25 61.4 °F 57.8 °F 29.91 in NNE 1.8 mph 3.5 mph 88 % 0.00 in 385.0 W/m2 BKN
12:30 61.7 °F 57.8 °F 29.90 in NNE 0.7 mph 3.5 mph 87 % 0.00 in 545.0 W/m2 SCT
12:35 62.2 °F 58.3 °F 29.90 in North 0.3 mph 2.3 mph 87 % 0.00 in 381.0 W/m2 BKN
12:40 63.1 °F 58.8 °F 29.90 in NNE 0.5 mph 3.0 mph 86 % 0.00 in 497.0 W/m2 SCT
12:45 64.1 °F 59.8 °F 29.89 in NNE 0.5 mph 2.3 mph 86 % 0.00 in 445.0 W/m2 SCT
12:50 65.2 °F 60.6 °F 29.89 in Calm     85 % 0.00 in 350.0 W/m2 BKN
12:55 66.0 °F 61.4 °F 29.88 in Calm     85 % 0.00 in 304.0 W/m2 BKN
13:00 66.9 °F 62.2 °F 29.88 in Calm     85 % 0.00 in 489.0 W/m2 SCT
13:05 67.4 °F 62.1 °F 29.88 in Calm   2.3 mph 83 % 0.00 in 297.0 W/m2 BKN
13:06 67.5 °F 62.2 °F 29.88 in Calm     83 % 0.00 in 376.0 W/m2 BKN
13:11 67.8 °F 62.4 °F 29.87 in Calm     83 % 0.00 in 383.0 W/m2 BKN
13:16 69.0 °F 63.3 °F 29.86 in SSW 1.3 mph 3.5 mph 82 % 0.00 in 383.0 W/m2 BKN
13:21 70.2 °F 64.1 °F 29.86 in South 0.3 mph 1.2 mph 81 % 0.00 in 828.0 W/m2 CLR
13:26 70.9 °F 64.4 °F 29.85 in Calm     80 % 0.00 in 360.0 W/m2 BKN
13:31 71.0 °F 63.8 °F 29.86 in SE 1.4 mph 5.8 mph 78 % 0.00 in 343.0 W/m2 OVC
13:36 70.8 °F 64.0 °F 29.85 in Calm     79 % 0.00 in 311.0 W/m2 BKN
13:41 71.2 °F 64.4 °F 29.84 in South 1.6 mph 8.1 mph 79 % 0.00 in 410.0 W/m2 BKN
13:42 71.2 °F 64.4 °F 29.84 in South 0.8 mph 3.5 mph 79 % 0.00 in 410.0 W/m2 BKN
13:47 72.4 °F 65.2 °F 29.84 in South 2.6 mph 4.6 mph 78 % 0.00 in 364.0 W/m2 BKN
13:57 73.7 °F 65.3 °F 29.84 in South 4.9 mph 9.2 mph 75 % 0.00 in 432.0 W/m2 BKN
14:02 74.5 °F 65.7 °F 29.83 in SW 9.2 mph 13.8 mph 74 % 0.00 in 513.0 W/m2 SCT
14:07 75.0 °F 65.8 °F 29.83 in South 7.6 mph 11.5 mph 73 % 0.00 in 621.0 W/m2 FEW
14:12 75.2 °F 65.9 °F 29.83 in South 6.0 mph 10.4 mph 73 % 0.00 in 540.0 W/m2 SCT
14:17 75.1 °F 65.9 °F 29.83 in South 7.4 mph 11.5 mph 73 % 0.00 in 255.0 W/m2 BKN
14:22 75.0 °F 65.8 °F 29.83 in South 6.4 mph 11.0 mph 73 % 0.00 in 211.0 W/m2 OVC
14:27 74.8 °F 65.6 °F 29.82 in SSW 6.7 mph 10.4 mph 73 % 0.00 in 178.0 W/m2 OVC
14:32 74.9 °F 65.7 °F 29.82 in South 1.5 mph 3.5 mph 73 % 0.00 in 104.0 W/m2 OVC
14:37 74.6 °F 65.4 °F 29.82 in South 1.6 mph 8.1 mph 73 % 0.00 in 88.0 W/m2 OVC
14:42 74.4 °F 65.6 °F 29.82 in South 4.1 mph 8.1 mph 74 % 0.00 in 206.0 W/m2 OVC
14:47 74.7 °F 65.9 °F 29.81 in SE 1.3 mph 5.0 mph 74 % 0.00 in 294.0 W/m2 BKN
14:52 75.8 °F 66.1 °F 29.80 in South 4.3 mph 6.9 mph 72 % 0.00 in 942.0 W/m2 CLR
14:57 76.9 °F 66.0 °F 29.80 in SSW 11.8 mph 16.1 mph 69 % 0.00 in 870.0 W/m2 CLR
15:02 77.4 °F 65.6 °F 29.80 in SSW 8.1 mph 10.4 mph 67 % 0.00 in 831.0 W/m2 CLR
15:07 78.3 °F 66.4 °F 29.79 in SSE 5.5 mph 13.0 mph 67 % 0.00 in 758.0 W/m2 CLR
15:12 77.9 °F 65.6 °F 29.79 in SSW 8.8 mph 17.0 mph 66 % 0.00 in 742.0 W/m2 CLR
15:17 78.3 °F 65.6 °F 29.78 in SSW 7.7 mph 13.0 mph 65 % 0.00 in 322.0 W/m2 FEW
15:22 78.4 °F 66.1 °F 29.78 in SSW 6.2 mph 10.4 mph 66 % 0.00 in 362.0 W/m2 SCT
15:27 78.6 °F 65.4 °F 29.79 in South 8.9 mph 13.8 mph 64 % 0.00 in 216.0 W/m2 BKN
15:32 78.2 °F 65.5 °F 29.78 in SSW 9.0 mph 16.1 mph 65 % 0.00 in 227.0 W/m2 BKN
15:37 77.8 °F 65.1 °F 29.78 in SSW 9.0 mph 12.7 mph 65 % 0.00 in 209.0 W/m2 OVC
15:42 77.7 °F 65.4 °F 29.78 in SSW 10.3 mph 15.0 mph 66 % 0.00 in 160.0 W/m2 OVC
15:47 77.4 °F 65.1 °F 29.77 in SSW 5.7 mph 11.5 mph 66 % 0.00 in 190.0 W/m2 OVC
15:52 77.2 °F 65.0 °F 29.77 in South 9.4 mph 15.0 mph 66 % 0.00 in 232.0 W/m2 BKN
15:57 77.4 °F 65.6 °F 29.76 in SSW 5.5 mph 10.4 mph 67 % 0.00 in 865.0 W/m2 SCT
16:02 78.2 °F 65.9 °F 29.76 in SW 7.8 mph 16.1 mph 66 % 0.00 in 701.0 W/m2 CLR
16:07 79.0 °F 65.8 °F 29.75 in South 5.8 mph 11.5 mph 64 % 0.00 in 642.0 W/m2 CLR
16:12 78.9 °F 65.7 °F 29.75 in South 9.0 mph 12.7 mph 64 % 0.00 in 647.0 W/m2 CLR
16:17 78.9 °F 65.2 °F 29.74 in South 10.5 mph 16.0 mph 63 % 0.00 in 642.0 W/m2 CLR
16:22 78.9 °F 65.7 °F 29.73 in SSW 10.3 mph 17.3 mph 64 % 0.00 in 663.0 W/m2 CLR
16:27 79.3 °F 65.6 °F 29.73 in SSW 8.4 mph 20.7 mph 63 % 0.00 in 708.0 W/m2 CLR
16:32 79.2 °F 65.5 °F 29.73 in South 7.5 mph 11.5 mph 63 % 0.00 in 661.0 W/m2 CLR
16:37 79.3 °F 65.1 °F 29.73 in SSW 13.2 mph 15.0 mph 62 % 0.00 in 677.0 W/m2 CLR
16:42 79.4 °F 65.2 °F 29.73 in South 9.7 mph 12.7 mph 62 % 0.00 in 592.0 W/m2 FEW
16:47 79.5 °F 64.9 °F 29.73 in South 12.3 mph 27.6 mph 61 % 0.00 in 555.0 W/m2 CLR
16:52 79.3 °F 64.7 °F 29.73 in SSW 14.2 mph 19.6 mph 61 % 0.00 in 176.0 W/m2 FEW
16:57 79.2 °F 65.1 °F 29.72 in South 5.2 mph 9.0 mph 62 % 0.00 in 652.0 W/m2 SCT
17:03 79.7 °F 65.5 °F 29.72 in SSE 9.8 mph 14.0 mph 62 % 0.00 in 582.0 W/m2 CLR
17:08 79.7 °F 65.1 °F 29.71 in SSE 6.5 mph 13.8 mph 61 % 0.00 in 517.0 W/m2 CLR
17:13 79.1 °F 65.0 °F 29.71 in South 2.4 mph 17.0 mph 62 % 0.00 in 188.0 W/m2 SCT
17:18 78.8 °F 65.1 °F 29.71 in SSW 6.0 mph 11.5 mph 63 % 0.00 in 267.0 W/m2 SCT
17:23 79.0 °F 64.9 °F 29.71 in South 6.5 mph 17.3 mph 62 % 0.00 in 239.0 W/m2 BKN
17:28 79.1 °F 65.4 °F 29.71 in SSW 6.3 mph 11.5 mph 63 % 0.00 in 425.0 W/m2 CLR
17:33 79.4 °F 65.2 °F 29.71 in SSW 8.9 mph 12.7 mph 62 % 0.00 in 137.0 W/m2 BKN
17:38 79.0 °F 64.9 °F 29.71 in SW 5.1 mph 11.5 mph 62 % 0.00 in 127.0 W/m2 BKN
17:43 79.0 °F 65.3 °F 29.71 in SSW 5.6 mph 11.5 mph 63 % 0.00 in 439.0 W/m2 CLR
17:48 79.0 °F 64.9 °F 29.70 in SE 9.0 mph 15.0 mph 62 % 0.00 in 278.0 W/m2 FEW
17:53 78.5 °F 64.9 °F 29.69 in SW 8.9 mph 15.0 mph 63 % 0.00 in 134.0 W/m2 BKN
17:58 78.3 °F 64.7 °F 29.69 in SSE 10.9 mph 18.4 mph 63 % 0.00 in 113.0 W/m2 BKN
18:03 78.1 °F 64.5 °F 29.68 in SSW 7.8 mph 18.4 mph 63 % 0.00 in 146.0 W/m2 BKN
18:08 78.1 °F 64.5 °F 29.68 in South 4.9 mph 8.1 mph 63 % 0.00 in 105.0 W/m2 BKN
18:13 78.0 °F 64.8 °F 29.68 in SSW 5.0 mph 12.7 mph 64 % 0.00 in 76.0 W/m2 BKN
18:18 77.9 °F 64.3 °F 29.68 in SSW 9.5 mph 15.0 mph 63 % 0.00 in 86.0 W/m2 BKN
18:23 77.8 °F 64.2 °F 29.68 in SSE 3.8 mph 9.2 mph 63 % 0.00 in 91.0 W/m2 BKN
18:28 77.8 °F 64.2 °F 29.68 in SSW 6.8 mph 11.5 mph 63 % 0.00 in 74.0 W/m2 BKN
18:33 77.8 °F 64.6 °F 29.68 in South 1.8 mph 4.6 mph 64 % 0.00 in 62.0 W/m2 BKN
18:38 77.6 °F 64.5 °F 29.68 in Calm   8.1 mph 64 % 0.00 in 21.0 W/m2 OVC
18:43 77.5 °F 64.4 °F 29.68 in Calm   8.1 mph 64 % 0.00 in 12.0 W/m2 OVC
18:48 77.4 °F 64.3 °F 29.68 in South 8.0 mph 10.4 mph 64 % 0.00 in 7.0 W/m2 OVC
18:53 77.4 °F 64.3 °F 29.68 in South 9.0 mph 16.1 mph 64 % 0.00 in 5.0 W/m2 OVC
18:58 77.4 °F 64.3 °F 29.68 in South 3.2 mph 6.9 mph 64 % 0.00 in 11.0 W/m2 OVC
19:03 77.4 °F 64.3 °F 29.67 in SW 5.1 mph 9.2 mph 64 % 0.00 in 16.0 W/m2 OVC
19:08 77.3 °F 64.2 °F 29.68 in South 2.5 mph 5.0 mph 64 % 0.00 in 11.0 W/m2 OVC
19:09 77.2 °F 64.1 °F 29.68 in South 4.4 mph 10.4 mph 64 % 0.00 in 11.0 W/m2 OVC
19:14 77.2 °F 64.1 °F 29.67 in South 6.4 mph 13.8 mph 64 % 0.00 in 7.0 W/m2 OVC
19:19 77.2 °F 64.1 °F 29.68 in South 9.2 mph 15.0 mph 64 % 0.00 in 5.0 W/m2 OVC
19:24 77.2 °F 64.1 °F 29.67 in SSW 6.6 mph 11.0 mph 64 % 0.00 in 9.0 W/m2 OVC
19:29 77.1 °F 64.0 °F 29.67 in South 2.5 mph 5.0 mph 64 % 0.00 in 5.0 W/m2 OVC
19:34 77.0 °F 63.9 °F 29.67 in South 1.7 mph 11.5 mph 64 % 0.00 in 5.0 W/m2 OVC
19:39 76.9 °F 64.2 °F 29.67 in SSE 2.5 mph 11.5 mph 65 % 0.00 in 0.0 W/m2 OVC
19:44 76.8 °F 64.1 °F 29.66 in South 3.7 mph 11.5 mph 65 % 0.00 in 0.0 W/m2 OVC
19:49 76.7 °F 64.0 °F 29.66 in South 2.5 mph 11.5 mph 65 % 0.00 in 0.0 W/m2 OVC
19:54 76.6 °F 64.4 °F 29.66 in SSE 5.0 mph 11.5 mph 66 % 0.00 in 0.0 W/m2 CLR
19:59 76.6 °F 64.4 °F 29.66 in South 3.9 mph 10.4 mph 66 % 0.00 in 0.0 W/m2 CLR
20:04 76.5 °F 64.3 °F 29.67 in South 7.1 mph 13.0 mph 66 % 0.00 in 0.0 W/m2 CLR
20:09 76.4 °F 64.2 °F 29.66 in SSE 0.1 mph 4.6 mph 66 % 0.00 in 0.0 W/m2 CLR
20:14 76.3 °F 64.1 °F 29.66 in SSW 5.7 mph 10.4 mph 66 % 0.00 in 0.0 W/m2 CLR
20:19 76.1 °F 63.9 °F 29.67 in South 6.5 mph 10.4 mph 66 % 0.00 in 0.0 W/m2 CLR
20:24 76.1 °F 63.9 °F 29.66 in SSW 7.7 mph 12.7 mph 66 % 0.00 in 0.0 W/m2 CLR
20:29 76.0 °F 63.8 °F 29.66 in South 4.7 mph 8.0 mph 66 % 0.00 in 0.0 W/m2 CLR
20:34 75.9 °F 63.7 °F 29.66 in South 2.9 mph 8.1 mph 66 % 0.00 in 0.0 W/m2 CLR
20:39 75.9 °F 63.7 °F 29.67 in SSW 4.6 mph 12.0 mph 66 % 0.00 in 0.0 W/m2 CLR
20:44 75.4 °F 64.5 °F 29.66 in South 8.0 mph 15.0 mph 69 % 0.01 in 0.0 W/m2 RA
20:49 74.6 °F 64.6 °F 29.66 in South 7.1 mph 12.7 mph 71 % 0.01 in 0.0 W/m2 RA
20:54 74.2 °F 64.6 °F 29.66 in SSW 6.8 mph 11.5 mph 72 % 0.01 in 0.0 W/m2
20:59 73.9 °F 64.3 °F 29.65 in South 1.9 mph 9.2 mph 72 % 0.01 in 0.0 W/m2 CLR
21:04 73.7 °F 64.5 °F 29.65 in SSW 3.8 mph 12.0 mph 73 % 0.01 in 0.0 W/m2 CLR
21:09 73.5 °F 64.3 °F 29.64 in South 4.3 mph 11.5 mph 73 % 0.01 in 0.0 W/m2 CLR
21:15 73.4 °F 64.6 °F 29.65 in Calm   1.2 mph 74 % 0.01 in 0.0 W/m2 CLR
21:20 73.3 °F 64.5 °F 29.65 in Calm     74 % 0.01 in 0.0 W/m2 CLR
21:25 73.1 °F 64.3 °F 29.64 in Calm     74 % 0.01 in 0.0 W/m2 CLR
21:30 73.1 °F 64.3 °F 29.64 in South 1.0 mph 4.6 mph 74 % 0.01 in 0.0 W/m2 CLR
21:35 73.1 °F 64.3 °F 29.63 in SSE 0.3 mph 4.0 mph 74 % 0.01 in 0.0 W/m2 CLR
21:40 73.3 °F 64.1 °F 29.63 in South 6.1 mph 10.4 mph 73 % 0.01 in 0.0 W/m2 CLR
21:45 73.3 °F 64.1 °F 29.63 in South 3.4 mph 9.2 mph 73 % 0.00 in 0.0 W/m2 CLR
21:50 73.2 °F 64.0 °F 29.63 in South 5.0 mph 9.2 mph 73 % 0.00 in 0.0 W/m2 CLR
21:55 73.2 °F 64.0 °F 29.64 in South 5.7 mph 10.4 mph 73 % 0.00 in 0.0 W/m2 CLR
22:00 73.2 °F 64.0 °F 29.63 in South 0.7 mph 4.6 mph 73 % 0.00 in 0.0 W/m2 CLR
22:05 73.3 °F 64.1 °F 29.64 in SSW 2.0 mph 5.8 mph 73 % 0.00 in 0.0 W/m2 CLR
22:10 73.2 °F 64.0 °F 29.63 in South 4.8 mph 6.9 mph 73 % 0.00 in 0.0 W/m2 CLR
22:15 73.2 °F 64.0 °F 29.63 in South 1.8 mph 7.0 mph 73 % 0.00 in 0.0 W/m2 CLR
22:20 73.1 °F 63.9 °F 29.62 in South 0.6 mph 4.6 mph 73 % 0.00 in 0.0 W/m2 CLR
22:25 73.2 °F 64.0 °F 29.62 in Calm   1.2 mph 73 % 0.00 in 0.0 W/m2 CLR
22:30 73.1 °F 63.9 °F 29.61 in South 3.1 mph 9.2 mph 73 % 0.00 in 0.0 W/m2 CLR
22:35 72.9 °F 63.7 °F 29.61 in South 1.0 mph 3.5 mph 73 % 0.00 in 0.0 W/m2 CLR
22:40 72.8 °F 63.2 °F 29.60 in South 1.4 mph   72 % 0.00 in 0.0 W/m2 CLR
22:45 72.7 °F 63.1 °F 29.60 in Calm     72 % 0.00 in 0.0 W/m2 CLR
22:50 72.5 °F 63.0 °F 29.59 in South 0.6 mph 6.9 mph 72 % 0.00 in 0.0 W/m2 CLR
22:55 72.3 °F 63.2 °F 29.59 in SSE 0.7 mph 3.5 mph 73 % 0.00 in 0.0 W/m2 CLR
23:00 72.2 °F 63.1 °F 29.59 in South 4.4 mph 9.2 mph 73 % 0.00 in 0.0 W/m2 CLR
23:05 72.1 °F 63.0 °F 29.59 in South 0.2 mph 3.5 mph 73 % 0.00 in 0.0 W/m2 CLR
23:10 72.0 °F 62.9 °F 29.59 in South 2.7 mph 8.0 mph 73 % 0.00 in 0.0 W/m2 CLR
23:15 71.9 °F 62.8 °F 29.59 in South 1.3 mph 6.9 mph 73 % 0.01 in 0.0 W/m2 RA
23:20 71.9 °F 62.8 °F 29.60 in South 0.1 mph 5.8 mph 73 % 0.01 in 0.0 W/m2 RA
23:25 71.8 °F 62.7 °F 29.59 in SE 1.8 mph 9.2 mph 73 % 0.01 in 0.0 W/m2
23:30 71.7 °F 63.0 °F 29.60 in South 5.5 mph 8.1 mph 74 % 0.01 in 0.0 W/m2 CLR
23:31 71.7 °F 63.0 °F 29.60 in SE 3.9 mph 9.2 mph 74 % 0.01 in 0.0 W/m2 CLR
23:36 71.7 °F 63.0 °F 29.59 in South 0.9 mph 3.5 mph 74 % 0.01 in 0.0 W/m2 CLR
23:41 71.6 °F 62.9 °F 29.59 in South 5.9 mph 13.8 mph 74 % 0.01 in 0.0 W/m2 CLR
23:46 71.7 °F 63.0 °F 29.59 in South 6.6 mph 9.2 mph 74 % 0.01 in 0.0 W/m2 CLR
23:51 71.7 °F 63.0 °F 29.59 in South 7.8 mph 12.7 mph 74 % 0.01 in 0.0 W/m2 CLR
23:56 71.8 °F 63.1 °F 29.59 in SSW 2.2 mph 5.8 mph 74 % 0.01 in 0.0 W/m2 CLR
Air Products Campus Weather
Compliments of Weather Underground - 3.5 mb